This is the latest recevied weather packets stored in our database for station/object N5COP-13. If no packets are shown the sender has not sent any weather packets the latest 10 day(s).
| Time | Temp. | Humidity | Pressure | Rain* | Wind** | Luminosity | Snow |
|---|---|---|---|---|---|---|---|
| 1777921017 | 27.78° C | 26% | 1008.2 hPa | 0 mm | - | 436 W/m² | - |
| 1777920714 | 27.78° C | 25% | 1008.2 hPa | 0 mm | - | 413 W/m² | - |
| 1777920410 | 28.33° C | 24% | 1008.2 hPa | 0 mm | - | 416 W/m² | - |
| 1777920105 | 28.33° C | 24% | 1008.4 hPa | 0 mm | - | 542 W/m² | - |
| 1777919802 | 27.78° C | 25% | 1008.3 hPa | 0 mm | - | 540 W/m² | - |
| 1777919500 | 28.33° C | 25% | 1008.4 hPa | 0 mm | - | 525 W/m² | - |
| 1777919197 | 28.33° C | 25% | 1008.7 hPa | 0 mm | - | 546 W/m² | - |
| 1777918889 | 27.78° C | 25% | 1008.7 hPa | 0 mm | - | 477 W/m² | - |
| 1777918586 | 27.78° C | 25% | 1008.7 hPa | 0 mm | - | 546 W/m² | - |
| 1777918284 | 27.78° C | 26% | 1008.9 hPa | 0 mm | - | 463 W/m² | - |
| 1777917983 | 27.78° C | 26% | 1009 hPa | 0 mm | - | 451 W/m² | - |
| 1777917681 | 27.78° C | 25% | 1009.2 hPa | 0 mm | - | 449 W/m² | - |
| 1777917378 | 27.78° C | 26% | 1009.4 hPa | 0 mm | - | 574 W/m² | - |
| 1777917075 | 27.78° C | 26% | 1009.5 hPa | 0 mm | - | 573 W/m² | - |
| 1777916773 | 27.78° C | 26% | 1009.5 hPa | 0 mm | - | 563 W/m² | - |
| 1777916469 | 27.78° C | 26% | 1009.5 hPa | 0 mm | - | 477 W/m² | - |
| 1777916166 | 27.22° C | 25% | 1009.5 hPa | 0 mm | - | 457 W/m² | - |
| 1777915864 | 27.22° C | 25% | 1009.8 hPa | 0 mm | - | 485 W/m² | - |
| 1777915560 | 27.22° C | 27% | 1009.7 hPa | 0 mm | - | 440 W/m² | - |
| 1777915256 | 26.67° C | 27% | 1009.9 hPa | 0 mm | - | 406 W/m² | - |
| 1777914953 | 27.22° C | 27% | 1009.8 hPa | 0 mm | - | 473 W/m² | - |
| 1777914650 | 26.67° C | 28% | 1009.9 hPa | 0 mm | - | 607 W/m² | - |
| 1777914346 | 26.67° C | 29% | 1009.9 hPa | 0 mm | - | 583 W/m² | - |
| 1777914044 | 26.67° C | 29% | 1010.1 hPa | 0 mm | - | 581 W/m² | - |
| 1777913739 | 26.67° C | 29% | 1010.3 hPa | 0 mm | - | 526 W/m² | - |
* Rain latest hour (hover to see other rain measurements)
** Current wind speed in m/s (hover to see current wind gust speed)